Time,TemperatureF,DewpointF,PressureIn,WindDirection,WindDirectionDegrees,WindSpeedMPH,WindSpeedGustMPH,Humidity,HourlyPrecipIn,Conditions,Clouds,dailyrainin,SoftwareType,DateUTC
2013-01-15 00:00:00,31.0,23.0,30.35,NNW,337,11.0,16.0,69,0.00,,,0.00,Rainwise IP-100,2013-01-15 05:00:00,
2013-01-15 00:01:00,31.0,23.0,30.35,NW,315,8.0,16.0,69,0.00,,,0.00,Rainwise IP-100,2013-01-15 05:01:00,
2013-01-15 00:06:00,31.0,23.0,30.35,NNW,337,8.0,13.0,68,0.00,,,0.00,Rainwise IP-100,2013-01-15 05:06:00,
2013-01-15 00:11:00,31.0,23.0,30.35,NW,315,6.0,11.0,69,0.00,,,0.00,Rainwise IP-100,2013-01-15 05:11:00,
2013-01-15 00:16:00,31.0,23.0,30.36,NW,315,5.0,8.0,69,0.00,,,0.00,Rainwise IP-100,2013-01-15 05:16:00,
2013-01-15 00:21:00,31.0,23.0,30.36,North,360,7.0,14.0,69,0.00,,,0.00,Rainwise IP-100,2013-01-15 05:21:00,
2013-01-15 00:26:00,31.0,23.0,30.36,NNE,22,3.0,9.0,70,0.00,,,0.00,Rainwise IP-100,2013-01-15 05:26:00,
2013-01-15 00:31:00,31.0,23.0,30.36,NW,315,4.0,7.0,70,0.00,,,0.00,Rainwise IP-100,2013-01-15 05:31:00,
2013-01-15 00:36:00,30.0,23.0,30.34,ENE,67,5.0,8.0,72,0.00,,,0.00,Rainwise IP-100,2013-01-15 05:36:00,
2013-01-15 00:41:00,30.0,23.0,30.34,NE,45,4.0,7.0,72,0.00,,,0.00,Rainwise IP-100,2013-01-15 05:41:00,
2013-01-15 00:46:00,30.0,23.0,30.32,North,360,6.0,8.0,72,0.00,,,0.00,Rainwise IP-100,2013-01-15 05:46:00,
2013-01-15 00:51:00,30.0,24.0,30.32,NNW,337,8.0,10.0,74,0.00,,,0.00,Rainwise IP-100,2013-01-15 05:51:00,
2013-01-15 00:56:00,30.0,23.0,30.35,NNW,337,3.0,12.0,72,0.00,,,0.00,Rainwise IP-100,2013-01-15 05:56:00,
2013-01-15 01:01:00,30.0,23.0,30.35,NNW,337,6.0,10.0,73,0.00,,,0.00,Rainwise IP-100,2013-01-15 06:01:00,
2013-01-15 01:06:00,30.0,23.0,30.34,North,360,7.0,12.0,73,0.00,,,0.00,Rainwise IP-100,2013-01-15 06:06:00,
2013-01-15 01:11:00,30.0,23.0,30.34,North,360,10.0,13.0,73,0.00,,,0.00,Rainwise IP-100,2013-01-15 06:11:00,
2013-01-15 01:16:00,30.0,23.0,30.35,North,360,6.0,11.0,73,0.00,,,0.00,Rainwise IP-100,2013-01-15 06:16:00,
2013-01-15 01:21:00,30.0,23.0,30.35,NNW,337,2.0,10.0,73,0.00,,,0.00,Rainwise IP-100,2013-01-15 06:21:00,
2013-01-15 01:26:00,30.0,23.0,30.35,North,360,6.0,7.0,73,0.00,,,0.00,Rainwise IP-100,2013-01-15 06:26:00,
2013-01-15 01:31:00,30.0,24.0,30.35,North,360,6.0,7.0,75,0.00,,,0.00,Rainwise IP-100,2013-01-15 06:31:00,
2013-01-15 01:36:00,30.0,24.0,30.35,NNW,337,5.0,10.0,75,0.00,,,0.00,Rainwise IP-100,2013-01-15 06:36:00,
2013-01-15 01:41:00,30.0,24.0,30.35,NW,315,4.0,8.0,74,0.00,,,0.00,Rainwise IP-100,2013-01-15 06:41:00,
2013-01-15 01:46:00,30.0,24.0,30.35,NW,315,3.0,7.0,75,0.00,,,0.00,Rainwise IP-100,2013-01-15 06:46:00,
2013-01-15 01:51:00,30.0,24.0,30.35,NNW,337,4.0,7.0,75,0.00,,,0.00,Rainwise IP-100,2013-01-15 06:51:00,
2013-01-15 01:56:00,30.0,24.0,30.34,NNW,337,1.0,6.0,75,0.00,,,0.00,Rainwise IP-100,2013-01-15 06:56:00,
2013-01-15 02:01:00,30.0,24.0,30.34,North,360,4.0,6.0,75,0.00,,,0.00,Rainwise IP-100,2013-01-15 07:01:00,
2013-01-15 02:06:00,30.0,24.0,30.34,NNW,337,7.0,7.0,75,0.00,,,0.00,Rainwise IP-100,2013-01-15 07:06:00,
2013-01-15 02:11:00,30.0,24.0,30.34,NNE,22,7.0,9.0,76,0.00,,,0.00,Rainwise IP-100,2013-01-15 07:11:00,
2013-01-15 02:16:00,30.0,24.0,30.34,NNE,22,6.0,7.0,76,0.00,,,0.00,Rainwise IP-100,2013-01-15 07:16:00,
2013-01-15 02:21:00,30.0,24.0,30.34,North,360,3.0,6.0,77,0.00,,,0.00,Rainwise IP-100,2013-01-15 07:21:00,
2013-01-15 02:26:00,30.0,24.0,30.34,North,360,3.0,5.0,77,0.00,,,0.00,Rainwise IP-100,2013-01-15 07:26:00,
2013-01-15 02:31:00,30.0,24.0,30.34,North,360,4.0,6.0,77,0.00,,,0.00,Rainwise IP-100,2013-01-15 07:31:00,
2013-01-15 02:36:00,30.0,24.0,30.33,North,360,0.0,6.0,77,0.00,,,0.00,Rainwise IP-100,2013-01-15 07:36:00,
2013-01-15 02:41:00,29.0,23.0,30.33,North,360,3.0,3.0,76,0.00,,,0.00,Rainwise IP-100,2013-01-15 07:41:00,
2013-01-15 02:46:00,29.0,23.0,30.33,NNE,22,2.0,4.0,77,0.00,,,0.00,Rainwise IP-100,2013-01-15 07:46:00,
2013-01-15 02:51:00,29.0,23.0,30.33,NE,45,5.0,8.0,78,0.00,,,0.00,Rainwise IP-100,2013-01-15 07:51:00,
2013-01-15 02:56:00,29.0,23.0,30.33,NNE,22,7.0,9.0,77,0.00,,,0.00,Rainwise IP-100,2013-01-15 07:56:00,
2013-01-15 03:01:00,29.0,23.0,30.33,North,360,6.0,9.0,78,0.00,,,0.00,Rainwise IP-100,2013-01-15 08:01:00,
2013-01-15 03:06:00,29.0,23.0,30.33,NNE,22,7.0,7.0,77,0.00,,,0.00,Rainwise IP-100,2013-01-15 08:06:00,
2013-01-15 03:11:00,29.0,23.0,30.33,North,360,6.0,10.0,77,0.00,,,0.00,Rainwise IP-100,2013-01-15 08:11:00,
2013-01-15 03:16:00,29.0,23.0,30.32,NNE,22,3.0,9.0,78,0.00,,,0.00,Rainwise IP-100,2013-01-15 08:16:00,
2013-01-15 03:21:00,29.0,23.0,30.32,North,360,6.0,7.0,78,0.00,,,0.00,Rainwise IP-100,2013-01-15 08:21:00,
2013-01-15 03:26:00,29.0,23.0,30.33,North,360,3.0,7.0,77,0.00,,,0.00,Rainwise IP-100,2013-01-15 08:26:00,
2013-01-15 03:31:00,29.0,23.0,30.33,NNW,337,6.0,10.0,77,0.00,,,0.00,Rainwise IP-100,2013-01-15 08:31:00,
2013-01-15 03:36:00,29.0,23.0,30.32,NNW,337,6.0,10.0,77,0.00,,,0.00,Rainwise IP-100,2013-01-15 08:36:00,
2013-01-15 03:41:00,29.0,23.0,30.32,NNW,337,7.0,10.0,77,0.00,,,0.00,Rainwise IP-100,2013-01-15 08:41:00,
2013-01-15 03:46:00,29.0,23.0,30.33,NNW,337,4.0,9.0,78,0.00,,,0.00,Rainwise IP-100,2013-01-15 08:46:00,
2013-01-15 03:50:00,29.0,23.0,30.33,North,360,9.0,9.0,78,0.00,,,0.00,Rainwise IP-100,2013-01-15 08:50:00,
2013-01-15 03:54:00,29.0,23.0,30.33,NNW,337,9.0,11.0,78,0.00,,,0.00,Rainwise IP-100,2013-01-15 08:54:00,
2013-01-15 04:00:00,29.0,23.0,30.33,North,360,9.0,9.0,78,0.00,,,0.00,Rainwise IP-100,2013-01-15 09:00:00,
2013-01-15 04:05:00,29.0,23.0,30.33,NW,315,7.0,8.0,76,0.00,,,0.00,Rainwise IP-100,2013-01-15 09:05:00,
2013-01-15 04:11:00,29.0,23.0,30.33,North,360,7.0,8.0,76,0.00,,,0.00,Rainwise IP-100,2013-01-15 09:11:00,
2013-01-15 04:16:00,29.0,23.0,30.33,NNW,337,3.0,8.0,78,0.00,,,0.00,Rainwise IP-100,2013-01-15 09:16:00,
2013-01-15 04:21:00,29.0,23.0,30.33,North,360,4.0,7.0,78,0.00,,,0.00,Rainwise IP-100,2013-01-15 09:21:00,
2013-01-15 04:26:00,29.0,23.0,30.34,NNW,337,3.0,9.0,78,0.00,,,0.00,Rainwise IP-100,2013-01-15 09:26:00,
2013-01-15 04:31:00,29.0,24.0,30.34,NNW,337,6.0,7.0,79,0.00,,,0.00,Rainwise IP-100,2013-01-15 09:31:00,
2013-01-15 04:36:00,29.0,23.0,30.33,NNW,337,4.0,10.0,78,0.00,,,0.00,Rainwise IP-100,2013-01-15 09:36:00,
2013-01-15 04:41:00,28.0,23.0,30.33,NNW,337,3.0,9.0,79,0.00,,,0.00,Rainwise IP-100,2013-01-15 09:41:00,
2013-01-15 04:46:00,28.0,23.0,30.33,NNW,337,4.0,6.0,80,0.00,,,0.00,Rainwise IP-100,2013-01-15 09:46:00,
2013-01-15 04:51:00,28.0,23.0,30.33,NW,315,6.0,7.0,81,0.00,,,0.00,Rainwise IP-100,2013-01-15 09:51:00,
2013-01-15 04:56:00,28.0,23.0,30.33,NNW,337,4.0,10.0,80,0.00,,,0.00,Rainwise IP-100,2013-01-15 09:56:00,
2013-01-15 05:01:00,28.0,23.0,30.33,NNW,337,7.0,7.0,80,0.00,,,0.00,Rainwise IP-100,2013-01-15 10:01:00,
2013-01-15 05:06:00,28.0,23.0,30.33,NNW,337,4.0,9.0,80,0.00,,,0.00,Rainwise IP-100,2013-01-15 10:06:00,
2013-01-15 05:11:00,28.0,23.0,30.33,North,360,5.0,9.0,80,0.00,,,0.00,Rainwise IP-100,2013-01-15 10:11:00,
2013-01-15 05:16:00,28.0,23.0,30.33,North,360,3.0,6.0,81,0.00,,,0.00,Rainwise IP-100,2013-01-15 10:16:00,
2013-01-15 05:21:00,28.0,23.0,30.33,North,360,2.0,5.0,80,0.00,,,0.00,Rainwise IP-100,2013-01-15 10:21:00,
2013-01-15 05:26:00,28.0,23.0,30.33,NE,45,6.0,6.0,80,0.00,,,0.00,Rainwise IP-100,2013-01-15 10:26:00,
2013-01-15 05:31:00,28.0,23.0,30.33,NE,45,2.0,6.0,79,0.00,,,0.00,Rainwise IP-100,2013-01-15 10:31:00,
2013-01-15 05:36:00,27.0,23.0,30.33,ENE,67,3.0,5.0,81,0.00,,,0.00,Rainwise IP-100,2013-01-15 10:36:00,
2013-01-15 05:41:00,27.0,23.0,30.33,ENE,67,5.0,6.0,78,0.00,,,0.00,Rainwise IP-100,2013-01-15 10:41:00,
2013-01-15 05:46:00,27.0,23.0,30.34,ENE,67,3.0,6.0,79,0.00,,,0.00,Rainwise IP-100,2013-01-15 10:46:00,
2013-01-15 05:51:00,27.0,23.0,30.34,NE,45,3.0,6.0,78,0.00,,,0.00,Rainwise IP-100,2013-01-15 10:51:00,
2013-01-15 05:56:00,27.0,23.0,30.34,NNE,22,2.0,5.0,78,0.00,,,0.00,Rainwise IP-100,2013-01-15 10:56:00,
2013-01-15 06:01:00,27.0,23.0,30.34,NNE,22,2.0,5.0,77,0.00,,,0.00,Rainwise IP-100,2013-01-15 11:01:00,
2013-01-15 06:06:00,27.0,23.0,30.35,NNE,22,2.0,3.0,78,0.00,,,0.00,Rainwise IP-100,2013-01-15 11:06:00,
2013-01-15 06:11:00,27.0,23.0,30.35,NNW,337,3.0,6.0,77,0.00,,,0.00,Rainwise IP-100,2013-01-15 11:11:00,
2013-01-15 06:16:00,27.0,23.0,30.35,North,360,2.0,6.0,78,0.00,,,0.00,Rainwise IP-100,2013-01-15 11:16:00,
2013-01-15 06:21:00,27.0,23.0,30.35,North,360,4.0,5.0,77,0.00,,,0.00,Rainwise IP-100,2013-01-15 11:21:00,
2013-01-15 06:26:00,27.0,23.0,30.35,North,360,6.0,6.0,77,0.00,,,0.00,Rainwise IP-100,2013-01-15 11:26:00,
2013-01-15 06:31:00,27.0,21.0,30.35,North,360,5.0,6.0,76,0.00,,,0.00,Rainwise IP-100,2013-01-15 11:31:00,
2013-01-15 06:36:00,27.0,23.0,30.36,NE,45,3.0,5.0,77,0.00,,,0.00,Rainwise IP-100,2013-01-15 11:36:00,
2013-01-15 06:41:00,27.0,21.0,30.36,NE,45,2.0,5.0,76,0.00,,,0.00,Rainwise IP-100,2013-01-15 11:41:00,
2013-01-15 06:46:00,27.0,23.0,30.36,NE,45,1.0,3.0,78,0.00,,,0.00,Rainwise IP-100,2013-01-15 11:46:00,
2013-01-15 06:51:00,27.0,23.0,30.36,ENE,67,2.0,3.0,80,0.00,,,0.00,Rainwise IP-100,2013-01-15 11:51:00,
2013-01-15 06:56:00,27.0,23.0,30.36,ENE,67,3.0,4.0,78,0.00,,,0.00,Rainwise IP-100,2013-01-15 11:56:00,
2013-01-15 07:01:00,27.0,23.0,30.36,ENE,67,2.0,3.0,78,0.00,,,0.00,Rainwise IP-100,2013-01-15 12:01:00,
2013-01-15 07:06:00,27.0,23.0,30.37,ENE,67,3.0,3.0,80,0.00,,,0.00,Rainwise IP-100,2013-01-15 12:06:00,
2013-01-15 07:11:00,27.0,23.0,30.37,ENE,67,3.0,4.0,77,0.00,,,0.00,Rainwise IP-100,2013-01-15 12:11:00,
2013-01-15 07:16:00,27.0,23.0,30.37,ENE,67,3.0,3.0,79,0.00,,,0.00,Rainwise IP-100,2013-01-15 12:16:00,
2013-01-15 07:21:00,27.0,23.0,30.37,ENE,67,3.0,4.0,77,0.00,,,0.00,Rainwise IP-100,2013-01-15 12:21:00,
2013-01-15 07:26:00,27.0,23.0,30.37,ENE,67,3.0,5.0,77,0.00,,,0.00,Rainwise IP-100,2013-01-15 12:26:00,
2013-01-15 07:31:00,27.0,23.0,30.37,ENE,67,0.0,4.0,80,0.00,,,0.00,Rainwise IP-100,2013-01-15 12:31:00,
2013-01-15 07:36:00,26.0,21.0,30.38,ENE,67,1.0,1.0,80,0.00,,,0.00,Rainwise IP-100,2013-01-15 12:36:00,
2013-01-15 07:41:00,26.0,21.0,30.38,NE,45,4.0,6.0,79,0.00,,,0.00,Rainwise IP-100,2013-01-15 12:41:00,
2013-01-15 07:46:00,27.0,23.0,30.38,North,360,2.0,6.0,79,0.00,,,0.00,Rainwise IP-100,2013-01-15 12:46:00,
2013-01-15 07:51:00,27.0,23.0,30.38,North,360,4.0,6.0,79,0.00,,,0.00,Rainwise IP-100,2013-01-15 12:51:00,
2013-01-15 07:56:00,27.0,23.0,30.38,North,360,1.0,5.0,78,0.00,,,0.00,Rainwise IP-100,2013-01-15 12:56:00,
2013-01-15 08:01:00,27.0,23.0,30.38,North,360,1.0,3.0,78,0.00,,,0.00,Rainwise IP-100,2013-01-15 13:01:00,
2013-01-15 08:06:00,27.0,23.0,30.39,North,360,2.0,4.0,79,0.00,,,0.00,Rainwise IP-100,2013-01-15 13:06:00,
2013-01-15 08:11:00,27.0,23.0,30.39,North,360,3.0,5.0,77,0.00,,,0.00,Rainwise IP-100,2013-01-15 13:11:00,
2013-01-15 08:16:00,27.0,23.0,30.39,North,360,2.0,5.0,79,0.00,,,0.00,Rainwise IP-100,2013-01-15 13:16:00,
2013-01-15 08:21:00,27.0,23.0,30.39,North,360,5.0,5.0,79,0.00,,,0.00,Rainwise IP-100,2013-01-15 13:21:00,
2013-01-15 08:26:00,27.0,23.0,30.39,NNE,22,5.0,6.0,77,0.00,,,0.00,Rainwise IP-100,2013-01-15 13:26:00,
2013-01-15 08:31:00,27.0,23.0,30.39,NNE,22,3.0,6.0,77,0.00,,,0.00,Rainwise IP-100,2013-01-15 13:31:00,
2013-01-15 08:36:00,27.0,21.0,30.39,NNE,22,6.0,6.0,76,0.00,,,0.00,Rainwise IP-100,2013-01-15 13:36:00,
2013-01-15 08:41:00,27.0,23.0,30.39,NNE,22,1.0,6.0,77,0.00,,,0.00,Rainwise IP-100,2013-01-15 13:41:00,
2013-01-15 08:46:00,27.0,21.0,30.40,ENE,67,5.0,6.0,76,0.00,,,0.00,Rainwise IP-100,2013-01-15 13:46:00,
2013-01-15 08:51:00,27.0,23.0,30.40,ENE,67,4.0,7.0,77,0.00,,,0.00,Rainwise IP-100,2013-01-15 13:51:00,
2013-01-15 08:56:00,27.0,23.0,30.40,NNE,22,3.0,6.0,77,0.00,,,0.00,Rainwise IP-100,2013-01-15 13:56:00,
2013-01-15 09:01:00,27.0,23.0,30.40,ENE,67,3.0,6.0,77,0.00,,,0.00,Rainwise IP-100,2013-01-15 14:01:00,
2013-01-15 09:06:00,27.0,21.0,30.40,NE,45,5.0,7.0,76,0.00,,,0.00,Rainwise IP-100,2013-01-15 14:06:00,
2013-01-15 09:11:00,27.0,21.0,30.40,NNE,22,5.0,6.0,76,0.00,,,0.00,Rainwise IP-100,2013-01-15 14:11:00,
2013-01-15 09:16:00,27.0,21.0,30.40,North,360,4.0,6.0,76,0.00,,,0.00,Rainwise IP-100,2013-01-15 14:16:00,
2013-01-15 09:21:00,28.0,21.0,30.40,North,360,3.0,6.0,74,0.00,,,0.00,Rainwise IP-100,2013-01-15 14:21:00,
2013-01-15 09:26:00,28.0,21.0,30.39,North,360,1.0,5.0,75,0.00,,,0.00,Rainwise IP-100,2013-01-15 14:26:00,
2013-01-15 09:31:00,28.0,21.0,30.39,NNE,22,0.0,6.0,75,0.00,,,0.00,Rainwise IP-100,2013-01-15 14:31:00,
2013-01-15 09:36:00,28.0,21.0,30.40,NW,315,2.0,6.0,74,0.00,,,0.00,Rainwise IP-100,2013-01-15 14:36:00,
2013-01-15 09:41:00,28.0,21.0,30.40,NNE,22,4.0,6.0,74,0.00,,,0.00,Rainwise IP-100,2013-01-15 14:41:00,
2013-01-15 09:46:00,28.0,21.0,30.40,NE,45,2.0,6.0,73,0.00,,,0.00,Rainwise IP-100,2013-01-15 14:46:00,
2013-01-15 09:51:00,28.0,21.0,30.40,North,360,5.0,7.0,72,0.00,,,0.00,Rainwise IP-100,2013-01-15 14:51:00,
2013-01-15 09:56:00,28.0,21.0,30.40,NNW,337,6.0,8.0,73,0.00,,,0.00,Rainwise IP-100,2013-01-15 14:56:00,
2013-01-15 10:01:00,28.0,21.0,30.40,NNW,337,4.0,7.0,72,0.00,,,0.00,Rainwise IP-100,2013-01-15 15:01:00,
2013-01-15 10:06:00,28.0,21.0,30.40,NW,315,6.0,9.0,72,0.00,,,0.00,Rainwise IP-100,2013-01-15 15:06:00,
2013-01-15 10:11:00,28.0,21.0,30.40,NW,315,6.0,9.0,72,0.00,,,0.00,Rainwise IP-100,2013-01-15 15:11:00,
2013-01-15 10:16:00,28.0,21.0,30.40,NNW,337,7.0,9.0,72,0.00,,,0.00,Rainwise IP-100,2013-01-15 15:16:00,
2013-01-15 10:21:00,28.0,21.0,30.40,NNW,337,9.0,12.0,72,0.00,,,0.00,Rainwise IP-100,2013-01-15 15:21:00,
2013-01-15 10:26:00,28.0,21.0,30.40,NNE,22,6.0,10.0,72,0.00,,,0.00,Rainwise IP-100,2013-01-15 15:26:00,
2013-01-15 10:31:00,28.0,21.0,30.40,NNW,337,6.0,12.0,72,0.00,,,0.00,Rainwise IP-100,2013-01-15 15:31:00,
2013-01-15 10:36:00,28.0,21.0,30.39,NW,315,9.0,10.0,72,0.00,,,0.00,Rainwise IP-100,2013-01-15 15:36:00,
2013-01-15 10:41:00,28.0,21.0,30.39,NNW,337,10.0,13.0,71,0.00,,,0.00,Rainwise IP-100,2013-01-15 15:41:00,
2013-01-15 10:46:00,28.0,21.0,30.39,NW,315,7.0,12.0,72,0.00,,,0.00,Rainwise IP-100,2013-01-15 15:46:00,
2013-01-15 10:51:00,29.0,21.0,30.39,NNW,337,6.0,9.0,70,0.00,,,0.00,Rainwise IP-100,2013-01-15 15:51:00,
2013-01-15 10:56:00,29.0,21.0,30.39,NE,45,4.0,9.0,70,0.00,,,0.00,Rainwise IP-100,2013-01-15 15:56:00,
2013-01-15 11:01:00,29.0,21.0,30.39,North,360,7.0,9.0,70,0.00,,,0.00,Rainwise IP-100,2013-01-15 16:01:00,
2013-01-15 11:06:00,29.0,21.0,30.39,NNW,337,5.0,9.0,70,0.00,,,0.00,Rainwise IP-100,2013-01-15 16:06:00,
2013-01-15 11:11:00,29.0,21.0,30.39,NE,45,5.0,9.0,70,0.00,,,0.00,Rainwise IP-100,2013-01-15 16:11:00,
2013-01-15 11:16:00,29.0,21.0,30.38,NNE,22,1.0,9.0,70,0.00,,,0.00,Rainwise IP-100,2013-01-15 16:16:00,
2013-01-15 11:21:00,29.0,21.0,30.38,NNW,337,6.0,9.0,69,0.00,,,0.00,Rainwise IP-100,2013-01-15 16:21:00,
2013-01-15 11:26:00,29.0,21.0,30.37,NW,315,9.0,10.0,69,0.00,,,0.00,Rainwise IP-100,2013-01-15 16:26:00,
2013-01-15 11:31:00,29.0,21.0,30.37,NNW,337,1.0,10.0,71,0.00,,,0.00,Rainwise IP-100,2013-01-15 16:31:00,
2013-01-15 11:36:00,29.0,23.0,30.37,North,360,1.0,6.0,72,0.00,,,0.00,Rainwise IP-100,2013-01-15 16:36:00,
2013-01-15 11:41:00,30.0,23.0,30.37,North,360,4.0,6.0,68,0.00,,,0.00,Rainwise IP-100,2013-01-15 16:41:00,
2013-01-15 11:46:00,30.0,23.0,30.36,North,360,2.0,7.0,68,0.00,,,0.00,Rainwise IP-100,2013-01-15 16:46:00,
2013-01-15 11:51:00,29.0,21.0,30.36,North,360,4.0,7.0,69,0.00,,,0.00,Rainwise IP-100,2013-01-15 16:51:00,
2013-01-15 11:56:00,29.0,21.0,30.37,North,360,3.0,7.0,69,0.00,,,0.00,Rainwise IP-100,2013-01-15 16:56:00,
2013-01-15 12:01:00,29.0,21.0,30.37,NW,315,4.0,7.0,70,0.00,,,0.00,Rainwise IP-100,2013-01-15 17:01:00,
2013-01-15 12:06:00,29.0,21.0,30.36,North,360,6.0,7.0,68,0.00,,,0.00,Rainwise IP-100,2013-01-15 17:06:00,
2013-01-15 12:11:00,29.0,21.0,30.36,NNW,337,10.0,10.0,69,0.00,,,0.00,Rainwise IP-100,2013-01-15 17:11:00,
2013-01-15 12:16:00,29.0,21.0,30.36,North,360,6.0,12.0,71,0.00,,,0.00,Rainwise IP-100,2013-01-15 17:16:00,
2013-01-15 12:21:00,29.0,21.0,30.36,North,360,7.0,9.0,70,0.00,,,0.00,Rainwise IP-100,2013-01-15 17:21:00,
2013-01-15 12:26:00,29.0,21.0,30.36,NW,315,4.0,10.0,70,0.00,,,0.00,Rainwise IP-100,2013-01-15 17:26:00,
2013-01-15 12:31:00,29.0,21.0,30.36,North,360,5.0,10.0,70,0.00,,,0.00,Rainwise IP-100,2013-01-15 17:31:00,
2013-01-15 12:36:00,29.0,21.0,30.36,NNE,22,6.0,7.0,68,0.00,,,0.00,Rainwise IP-100,2013-01-15 17:36:00,
2013-01-15 12:41:00,29.0,21.0,30.36,North,360,6.0,7.0,70,0.00,,,0.00,Rainwise IP-100,2013-01-15 17:41:00,
2013-01-15 12:46:00,29.0,21.0,30.36,ENE,67,6.0,9.0,68,0.00,,,0.00,Rainwise IP-100,2013-01-15 17:46:00,
2013-01-15 12:51:00,29.0,21.0,30.36,NNE,22,4.0,8.0,69,0.00,,,0.00,Rainwise IP-100,2013-01-15 17:51:00,
2013-01-15 12:56:00,29.0,21.0,30.35,North,360,3.0,7.0,68,0.00,,,0.00,Rainwise IP-100,2013-01-15 17:56:00,
2013-01-15 13:01:00,29.0,21.0,30.35,NE,45,5.0,8.0,66,0.00,,,0.00,Rainwise IP-100,2013-01-15 18:01:00,
2013-01-15 13:06:00,29.0,21.0,30.35,North,360,5.0,11.0,67,0.00,,,0.00,Rainwise IP-100,2013-01-15 18:06:00,
2013-01-15 13:11:00,29.0,21.0,30.35,NNE,22,4.0,6.0,67,0.00,,,0.00,Rainwise IP-100,2013-01-15 18:11:00,
2013-01-15 13:16:00,30.0,21.0,30.34,NNE,22,2.0,6.0,66,0.00,,,0.00,Rainwise IP-100,2013-01-15 18:16:00,
2013-01-15 13:21:00,30.0,21.0,30.34,North,360,3.0,6.0,65,0.00,,,0.00,Rainwise IP-100,2013-01-15 18:21:00,
2013-01-15 13:26:00,30.0,21.0,30.34,ENE,67,4.0,5.0,65,0.00,,,0.00,Rainwise IP-100,2013-01-15 18:26:00,
2013-01-15 13:31:00,30.0,21.0,30.34,NW,315,5.0,6.0,66,0.00,,,0.00,Rainwise IP-100,2013-01-15 18:31:00,
2013-01-15 13:36:00,29.0,21.0,30.34,West,270,6.0,15.0,68,0.00,,,0.00,Rainwise IP-100,2013-01-15 18:36:00,
2013-01-15 13:41:00,29.0,21.0,30.34,SSW,202,6.0,12.0,68,0.00,,,0.00,Rainwise IP-100,2013-01-15 18:41:00,
2013-01-15 13:46:00,29.0,21.0,30.35,SSW,202,8.0,10.0,66,0.00,,,0.00,Rainwise IP-100,2013-01-15 18:46:00,
2013-01-15 13:51:00,30.0,21.0,30.35,South,180,4.0,9.0,66,0.00,,,0.00,Rainwise IP-100,2013-01-15 18:51:00,
2013-01-15 13:56:00,31.0,21.0,30.34,SW,225,7.0,12.0,62,0.00,,,0.00,Rainwise IP-100,2013-01-15 18:56:00,
2013-01-15 14:01:00,31.0,21.0,30.34,WSW,247,6.0,9.0,62,0.00,,,0.00,Rainwise IP-100,2013-01-15 19:01:00,
2013-01-15 14:06:00,31.0,21.0,30.34,West,270,6.0,10.0,62,0.00,,,0.00,Rainwise IP-100,2013-01-15 19:06:00,
2013-01-15 14:11:00,30.0,18.0,30.34,WSW,247,10.0,13.0,61,0.00,,,0.00,Rainwise IP-100,2013-01-15 19:11:00,
2013-01-15 14:16:00,30.0,18.0,30.35,WSW,247,10.0,12.0,61,0.00,,,0.00,Rainwise IP-100,2013-01-15 19:16:00,
2013-01-15 14:21:00,30.0,21.0,30.35,WSW,247,10.0,10.0,64,0.00,,,0.00,Rainwise IP-100,2013-01-15 19:21:00,
2013-01-15 14:26:00,29.0,18.0,30.34,SW,225,6.0,10.0,62,0.00,,,0.00,Rainwise IP-100,2013-01-15 19:26:00,
2013-01-15 14:31:00,29.0,18.0,30.34,WSW,247,3.0,7.0,64,0.00,,,0.00,Rainwise IP-100,2013-01-15 19:31:00,
2013-01-15 14:36:00,29.0,18.0,30.35,SW,225,4.0,7.0,64,0.00,,,0.00,Rainwise IP-100,2013-01-15 19:36:00,
2013-01-15 14:41:00,29.0,18.0,30.35,West,270,3.0,4.0,63,0.00,,,0.00,Rainwise IP-100,2013-01-15 19:41:00,
2013-01-15 14:46:00,29.0,18.0,30.34,West,270,0.0,3.0,64,0.00,,,0.00,Rainwise IP-100,2013-01-15 19:46:00,
2013-01-15 14:51:00,29.0,18.0,30.34,West,270,0.0,0.0,64,0.00,,,0.00,Rainwise IP-100,2013-01-15 19:51:00,
2013-01-15 14:56:00,29.0,18.0,30.34,SSE,157,1.0,2.0,65,0.00,,,0.00,Rainwise IP-100,2013-01-15 19:56:00,
2013-01-15 15:01:00,29.0,18.0,30.34,SSE,157,0.0,1.0,65,0.00,,,0.00,Rainwise IP-100,2013-01-15 20:01:00,
2013-01-15 15:06:00,29.0,18.0,30.34,SE,135,1.0,3.0,65,0.00,,,0.00,Rainwise IP-100,2013-01-15 20:06:00,
2013-01-15 15:11:00,29.0,21.0,30.34,SE,135,0.0,2.0,67,0.00,,,0.00,Rainwise IP-100,2013-01-15 20:11:00,
2013-01-15 15:16:00,29.0,21.0,30.34,SE,135,1.0,2.0,69,0.00,,,0.00,Rainwise IP-100,2013-01-15 20:16:00,
2013-01-15 15:21:00,29.0,21.0,30.34,SE,135,0.0,1.0,70,0.00,,,0.00,Rainwise IP-100,2013-01-15 20:21:00,
2013-01-15 15:26:00,29.0,21.0,30.34,SE,135,0.0,2.0,69,0.00,,,0.00,Rainwise IP-100,2013-01-15 20:26:00,
2013-01-15 15:31:00,29.0,21.0,30.34,ESE,112,0.0,2.0,69,0.00,,,0.00,Rainwise IP-100,2013-01-15 20:31:00,
2013-01-15 15:36:00,28.0,21.0,30.34,ESE,112,1.0,2.0,70,0.00,,,0.00,Rainwise IP-100,2013-01-15 20:36:00,
2013-01-15 15:41:00,28.0,21.0,30.34,ESE,112,2.0,4.0,70,0.00,,,0.00,Rainwise IP-100,2013-01-15 20:41:00,
2013-01-15 15:46:00,28.0,21.0,30.35,ESE,112,0.0,3.0,71,0.00,,,0.00,Rainwise IP-100,2013-01-15 20:46:00,
2013-01-15 15:51:00,28.0,21.0,30.35,ESE,112,0.0,0.0,70,0.00,,,0.00,Rainwise IP-100,2013-01-15 20:51:00,
2013-01-15 15:56:00,28.0,18.0,30.35,ESE,112,0.0,1.0,68,0.00,,,0.00,Rainwise IP-100,2013-01-15 20:56:00,
2013-01-15 16:01:00,28.0,21.0,30.35,ESE,112,3.0,5.0,70,0.00,,,0.00,Rainwise IP-100,2013-01-15 21:01:00,
2013-01-15 16:06:00,28.0,18.0,30.34,East,90,4.0,6.0,68,0.00,,,0.00,Rainwise IP-100,2013-01-15 21:06:00,
2013-01-15 16:11:00,28.0,18.0,30.34,ENE,67,4.0,6.0,69,0.00,,,0.00,Rainwise IP-100,2013-01-15 21:11:00,
2013-01-15 16:16:00,28.0,18.0,30.35,ENE,67,5.0,7.0,66,0.00,,,0.00,Rainwise IP-100,2013-01-15 21:16:00,
2013-01-15 16:21:00,28.0,18.0,30.35,ENE,67,6.0,7.0,68,0.00,,,0.00,Rainwise IP-100,2013-01-15 21:21:00,
2013-01-15 16:26:00,28.0,21.0,30.35,ENE,67,4.0,7.0,72,0.00,,,0.00,Rainwise IP-100,2013-01-15 21:26:00,
2013-01-15 16:31:00,28.0,21.0,30.35,ENE,67,3.0,5.0,72,0.00,,,0.00,Rainwise IP-100,2013-01-15 21:31:00,
2013-01-15 16:36:00,28.0,21.0,30.34,ENE,67,3.0,6.0,72,0.00,,,0.00,Rainwise IP-100,2013-01-15 21:36:00,
2013-01-15 16:41:00,27.0,21.0,30.34,East,90,6.0,7.0,70,0.00,,,0.00,Rainwise IP-100,2013-01-15 21:41:00,
2013-01-15 16:46:00,27.0,21.0,30.34,East,90,4.0,7.0,71,0.00,,,0.00,Rainwise IP-100,2013-01-15 21:46:00,
2013-01-15 16:51:00,27.0,21.0,30.34,East,90,3.0,5.0,72,0.00,,,0.00,Rainwise IP-100,2013-01-15 21:51:00,
2013-01-15 16:56:00,27.0,21.0,30.34,East,90,3.0,6.0,71,0.00,,,0.00,Rainwise IP-100,2013-01-15 21:56:00,
2013-01-15 17:01:00,27.0,21.0,30.34,East,90,2.0,4.0,71,0.00,,,0.00,Rainwise IP-100,2013-01-15 22:01:00,
2013-01-15 17:06:00,26.0,18.0,30.34,East,90,1.0,3.0,72,0.00,,,0.00,Rainwise IP-100,2013-01-15 22:06:00,
2013-01-15 17:11:00,26.0,18.0,30.34,East,90,4.0,4.0,73,0.00,,,0.00,Rainwise IP-100,2013-01-15 22:11:00,
2013-01-15 17:16:00,26.0,18.0,30.33,East,90,4.0,5.0,72,0.00,,,0.00,Rainwise IP-100,2013-01-15 22:16:00,
2013-01-15 17:21:00,26.0,18.0,30.33,East,90,2.0,4.0,72,0.00,,,0.00,Rainwise IP-100,2013-01-15 22:21:00,
2013-01-15 17:26:00,26.0,18.0,30.34,East,90,0.0,2.0,73,0.00,,,0.00,Rainwise IP-100,2013-01-15 22:26:00,
2013-01-15 17:31:00,25.0,18.0,30.34,East,90,0.0,0.0,74,0.00,,,0.00,Rainwise IP-100,2013-01-15 22:31:00,
2013-01-15 17:36:00,25.0,18.0,30.35,East,90,0.0,0.0,74,0.00,,,0.00,Rainwise IP-100,2013-01-15 22:36:00,
2013-01-15 17:41:00,25.0,18.0,30.35,East,90,0.0,0.0,74,0.00,,,0.00,Rainwise IP-100,2013-01-15 22:41:00,
2013-01-15 17:46:00,25.0,18.0,30.35,East,90,0.0,0.0,73,0.00,,,0.00,Rainwise IP-100,2013-01-15 22:46:00,
2013-01-15 17:51:00,25.0,18.0,30.35,East,90,0.0,1.0,74,0.00,,,0.00,Rainwise IP-100,2013-01-15 22:51:00,
2013-01-15 17:56:00,25.0,21.0,30.35,East,90,0.0,0.0,76,0.00,,,0.00,Rainwise IP-100,2013-01-15 22:56:00,
2013-01-15 18:01:00,25.0,21.0,30.35,East,90,1.0,3.0,76,0.00,,,0.00,Rainwise IP-100,2013-01-15 23:01:00,
2013-01-15 18:06:00,25.0,18.0,30.36,East,90,0.0,2.0,74,0.00,,,0.00,Rainwise IP-100,2013-01-15 23:06:00,
2013-01-15 18:11:00,25.0,18.0,30.36,East,90,1.0,1.0,74,0.00,,,0.00,Rainwise IP-100,2013-01-15 23:11:00,
2013-01-15 18:16:00,25.0,18.0,30.35,East,90,1.0,2.0,74,0.00,,,0.00,Rainwise IP-100,2013-01-15 23:16:00,
2013-01-15 18:21:00,25.0,18.0,30.35,East,90,3.0,3.0,74,0.00,,,0.00,Rainwise IP-100,2013-01-15 23:21:00,
2013-01-15 18:26:00,25.0,21.0,30.35,East,90,2.0,4.0,76,0.00,,,0.00,Rainwise IP-100,2013-01-15 23:26:00,
2013-01-15 18:31:00,25.0,21.0,30.35,East,90,1.0,3.0,77,0.00,,,0.00,Rainwise IP-100,2013-01-15 23:31:00,
2013-01-15 18:36:00,24.0,18.0,30.35,East,90,0.0,2.0,78,0.00,,,0.00,Rainwise IP-100,2013-01-15 23:36:00,
2013-01-15 18:41:00,24.0,18.0,30.35,East,90,0.0,0.0,78,0.00,,,0.00,Rainwise IP-100,2013-01-15 23:41:00,
2013-01-15 18:46:00,24.0,18.0,30.36,East,90,0.0,0.0,77,0.00,,,0.00,Rainwise IP-100,2013-01-15 23:46:00,
2013-01-15 18:51:00,24.0,18.0,30.36,East,90,1.0,1.0,78,0.00,,,0.00,Rainwise IP-100,2013-01-15 23:51:00,
2013-01-15 18:56:00,24.0,18.0,30.36,East,90,1.0,2.0,78,0.00,,,0.00,Rainwise IP-100,2013-01-15 23:56:00,
2013-01-15 19:01:00,24.0,18.0,30.36,East,90,0.0,1.0,80,0.00,,,0.00,Rainwise IP-100,2013-01-16 00:01:00,
2013-01-15 19:06:00,24.0,18.0,30.36,East,90,0.0,0.0,80,0.00,,,0.00,Rainwise IP-100,2013-01-16 00:06:00,
2013-01-15 19:11:00,24.0,18.0,30.36,East,90,0.0,1.0,79,0.00,,,0.00,Rainwise IP-100,2013-01-16 00:11:00,
2013-01-15 19:16:00,24.0,18.0,30.35,East,90,0.0,3.0,79,0.00,,,0.00,Rainwise IP-100,2013-01-16 00:16:00,
2013-01-15 19:21:00,23.0,16.0,30.35,East,90,0.0,0.0,79,0.00,,,0.00,Rainwise IP-100,2013-01-16 00:21:00,
2013-01-15 19:26:00,24.0,18.0,30.35,East,90,2.0,3.0,80,0.00,,,0.00,Rainwise IP-100,2013-01-16 00:26:00,
2013-01-15 19:31:00,23.0,16.0,30.35,East,90,1.0,4.0,79,0.00,,,0.00,Rainwise IP-100,2013-01-16 00:31:00,
2013-01-15 19:36:00,23.0,18.0,30.35,SSW,202,4.0,5.0,80,0.00,,,0.00,Rainwise IP-100,2013-01-16 00:36:00,
2013-01-15 19:41:00,23.0,18.0,30.35,SE,135,1.0,4.0,80,0.00,,,0.00,Rainwise IP-100,2013-01-16 00:41:00,
2013-01-15 19:46:00,23.0,18.0,30.35,SSE,157,5.0,6.0,84,0.00,,,0.00,Rainwise IP-100,2013-01-16 00:46:00,
2013-01-15 19:51:00,23.0,18.0,30.35,SSE,157,0.0,6.0,85,0.00,,,0.00,Rainwise IP-100,2013-01-16 00:51:00,
2013-01-15 19:56:00,23.0,18.0,30.35,SSE,157,0.0,1.0,83,0.00,,,0.00,Rainwise IP-100,2013-01-16 00:56:00,
2013-01-15 20:01:00,23.0,18.0,30.35,East,90,2.0,4.0,82,0.00,,,0.00,Rainwise IP-100,2013-01-16 01:01:00,
2013-01-15 20:06:00,23.0,18.0,30.34,East,90,1.0,4.0,82,0.00,,,0.00,Rainwise IP-100,2013-01-16 01:06:00,
2013-01-15 20:11:00,23.0,18.0,30.34,East,90,0.0,2.0,83,0.00,,,0.00,Rainwise IP-100,2013-01-16 01:11:00,
2013-01-15 20:16:00,22.0,18.0,30.34,East,90,0.0,0.0,84,0.00,,,0.00,Rainwise IP-100,2013-01-16 01:16:00,
2013-01-15 20:21:00,22.0,18.0,30.34,East,90,0.0,0.0,85,0.00,,,0.00,Rainwise IP-100,2013-01-16 01:21:00,
2013-01-15 20:26:00,22.0,18.0,30.35,East,90,2.0,3.0,85,0.00,,,0.00,Rainwise IP-100,2013-01-16 01:26:00,
2013-01-15 20:31:00,22.0,18.0,30.35,East,90,1.0,3.0,84,0.00,,,0.00,Rainwise IP-100,2013-01-16 01:31:00,
2013-01-15 20:36:00,22.0,18.0,30.34,East,90,0.0,3.0,85,0.00,,,0.00,Rainwise IP-100,2013-01-16 01:36:00,
2013-01-15 20:41:00,22.0,18.0,30.34,East,90,0.0,1.0,85,0.00,,,0.00,Rainwise IP-100,2013-01-16 01:41:00,
2013-01-15 20:46:00,22.0,18.0,30.35,East,90,3.0,4.0,86,0.00,,,0.00,Rainwise IP-100,2013-01-16 01:46:00,
2013-01-15 20:51:00,23.0,18.0,30.35,East,90,4.0,6.0,85,0.00,,,0.00,Rainwise IP-100,2013-01-16 01:51:00,
2013-01-15 20:56:00,23.0,18.0,30.33,ENE,67,2.0,6.0,83,0.00,,,0.00,Rainwise IP-100,2013-01-16 01:56:00,
2013-01-15 21:01:00,23.0,18.0,30.33,ENE,67,1.0,3.0,84,0.00,,,0.00,Rainwise IP-100,2013-01-16 02:01:00,
2013-01-15 21:06:00,23.0,18.0,30.34,ENE,67,1.0,4.0,84,0.00,,,0.00,Rainwise IP-100,2013-01-16 02:06:00,
2013-01-15 21:11:00,23.0,18.0,30.34,ENE,67,3.0,4.0,84,0.00,,,0.00,Rainwise IP-100,2013-01-16 02:11:00,
2013-01-15 21:16:00,23.0,18.0,30.34,ENE,67,1.0,5.0,84,0.00,,,0.00,Rainwise IP-100,2013-01-16 02:16:00,
2013-01-15 21:21:00,23.0,18.0,30.34,ENE,67,2.0,4.0,84,0.00,,,0.00,Rainwise IP-100,2013-01-16 02:21:00,
2013-01-15 21:26:00,23.0,18.0,30.32,ENE,67,1.0,3.0,85,0.00,,,0.00,Rainwise IP-100,2013-01-16 02:26:00,
2013-01-15 21:31:00,23.0,18.0,30.32,ENE,67,0.0,2.0,85,0.00,,,0.00,Rainwise IP-100,2013-01-16 02:31:00,
2013-01-15 21:36:00,23.0,18.0,30.32,ENE,67,0.0,2.0,87,0.00,,,0.00,Rainwise IP-100,2013-01-16 02:36:00,
2013-01-15 21:41:00,22.0,18.0,30.32,ENE,67,0.0,0.0,86,0.00,,,0.00,Rainwise IP-100,2013-01-16 02:41:00,
2013-01-15 21:46:00,22.0,18.0,30.33,ENE,67,0.0,0.0,86,0.00,,,0.00,Rainwise IP-100,2013-01-16 02:46:00,
2013-01-15 21:51:00,22.0,18.0,30.33,ENE,67,0.0,0.0,86,0.00,,,0.00,Rainwise IP-100,2013-01-16 02:51:00,
2013-01-15 21:56:00,22.0,21.0,30.33,ENE,67,1.0,2.0,89,0.00,,,0.00,Rainwise IP-100,2013-01-16 02:56:00,
2013-01-15 22:01:00,22.0,21.0,30.33,ENE,67,2.0,2.0,88,0.00,,,0.00,Rainwise IP-100,2013-01-16 03:01:00,
2013-01-15 22:06:00,22.0,18.0,30.33,ENE,67,0.0,2.0,86,0.00,,,0.00,Rainwise IP-100,2013-01-16 03:06:00,
2013-01-15 22:11:00,22.0,18.0,30.33,ENE,67,0.0,0.0,86,0.00,,,0.00,Rainwise IP-100,2013-01-16 03:11:00,
2013-01-15 22:16:00,22.0,18.0,30.33,ENE,67,0.0,0.0,86,0.00,,,0.00,Rainwise IP-100,2013-01-16 03:16:00,
2013-01-15 22:21:00,22.0,18.0,30.33,ENE,67,2.0,3.0,86,0.00,,,0.00,Rainwise IP-100,2013-01-16 03:21:00,
2013-01-15 22:26:00,22.0,18.0,30.32,ENE,67,2.0,3.0,87,0.00,,,0.00,Rainwise IP-100,2013-01-16 03:26:00,
2013-01-15 22:31:00,22.0,18.0,30.32,ENE,67,0.0,2.0,87,0.00,,,0.00,Rainwise IP-100,2013-01-16 03:31:00,
2013-01-15 22:36:00,22.0,18.0,30.32,ENE,67,0.0,1.0,87,0.00,,,0.00,Rainwise IP-100,2013-01-16 03:36:00,
2013-01-15 22:41:00,22.0,18.0,30.32,ENE,67,0.0,0.0,86,0.00,,,0.00,Rainwise IP-100,2013-01-16 03:41:00,
2013-01-15 22:46:00,22.0,18.0,30.33,ENE,67,0.0,0.0,86,0.00,,,0.00,Rainwise IP-100,2013-01-16 03:46:00,
2013-01-15 22:51:00,22.0,18.0,30.33,ENE,67,0.0,0.0,86,0.00,,,0.00,Rainwise IP-100,2013-01-16 03:51:00,
2013-01-15 22:56:00,22.0,18.0,30.33,South,180,3.0,4.0,86,0.00,,,0.00,Rainwise IP-100,2013-01-16 03:56:00,
2013-01-15 23:01:00,22.0,18.0,30.33,South,180,0.0,4.0,85,0.00,,,0.00,Rainwise IP-100,2013-01-16 04:01:00,
2013-01-15 23:06:00,22.0,18.0,30.32,South,180,2.0,3.0,85,0.00,,,0.00,Rainwise IP-100,2013-01-16 04:06:00,
2013-01-15 23:11:00,22.0,18.0,30.32,South,180,3.0,4.0,85,0.00,,,0.00,Rainwise IP-100,2013-01-16 04:11:00,
2013-01-15 23:16:00,23.0,18.0,30.33,South,180,3.0,3.0,86,0.00,,,0.00,Rainwise IP-100,2013-01-16 04:16:00,
2013-01-15 23:21:00,23.0,18.0,30.33,South,180,1.0,4.0,86,0.00,,,0.00,Rainwise IP-100,2013-01-16 04:21:00,
2013-01-15 23:26:00,23.0,18.0,30.33,South,180,3.0,5.0,86,0.00,,,0.00,Rainwise IP-100,2013-01-16 04:26:00,
2013-01-15 23:31:00,23.0,21.0,30.33,South,180,1.0,4.0,88,0.00,,,0.00,Rainwise IP-100,2013-01-16 04:31:00,
2013-01-15 23:36:00,23.0,21.0,30.33,South,180,2.0,3.0,88,0.00,,,0.00,Rainwise IP-100,2013-01-16 04:36:00,
2013-01-15 23:41:00,23.0,21.0,30.33,SE,135,2.0,5.0,88,0.00,,,0.00,Rainwise IP-100,2013-01-16 04:41:00,
2013-01-15 23:46:00,23.0,21.0,30.32,SE,135,0.0,3.0,88,0.00,,,0.00,Rainwise IP-100,2013-01-16 04:46:00,
2013-01-15 23:51:00,22.0,21.0,30.32,SE,135,0.0,0.0,88,0.00,,,0.00,Rainwise IP-100,2013-01-16 04:51:00,
2013-01-15 23:56:00,23.0,21.0,30.32,SE,135,2.0,3.0,88,0.00,,,0.00,Rainwise IP-100,2013-01-16 04:56:00,